Sparta, IL

2:27 AM CDT on July 22, 2017 (GMT -0500)
Sparta Community-Hunter

Weather History for KSAR - March, 2012

Change the Weather History Date:

Tuesday, March 27, 2012

  Actual Average (KBLV) Record (KBLV)
Temperature  
Mean Temperature 62 °F -  
Max Temperature 73 °F 62 °F 83 °F (1991)
Min Temperature 51 °F 37 °F 16 °F (1955)
Degree Days  
Heating Degree Days 3    
Growing Degree Days 12 (Base 50)    
Moisture  
Dew Point 47 °F    
Average Humidity 58    
Maximum Humidity 72    
Minimum Humidity 42    
Precipitation  
Precipitation 0.00 in - - ()
Sea Level Pressure  
Sea Level Pressure 30.09 in    
Wind  
Wind Speed 11 mph (SE)    
Max Wind Speed 15 mph    
Max Gust Speed 22 mph    
Visibility 10 miles    
Events      
Averages and records for this station are not official NWS values.
T = Trace of Precipitation, MM = Missing Value Source: NWS Daily Summary

Daily Weather History Graph

Daily Weather History Graph

Search for Another Location

Airport or City:

Trip Planner

Search our weather history database for the weather conditions in past years. The results will help you decide how hot, cold, wet, or windy it might be!

Date:

Astronomy

Mar. 27, 2012 Rise Set
Actual Time 6:50 AM CDT 7:17 PM CDT
Civil Twilight 6:24 AM CDT 7:44 PM CDT
Nautical Twilight 5:53 AM CDT 8:15 PM CDT
Astronomical Twilight 5:21 AM CDT 8:47 PM CDT
Moon 9:25 AM CDT (3/27) No Moon Set
Length of Visible Light 13h 19m
Length of Day
12h 27m
Waxing Crescent, 22% of the Moon is Illuminated
Mar 27
Waxing Crescent
Mar 30
First Quarter
Apr 6
Full
Apr 13
Last Quarter
Apr 21
New

Hourly Weather History & Observations

Time (CDT) Temp. Dew Point Humidity Pressure Visibility Wind Dir Wind Speed Gust Speed Precip Events Conditions
12:15 AM 57.2 °F 42.8 °F 59% 30.13 in 10.0 mi ESE 11.5 mph - N/A   Clear
12:35 AM 57.2 °F 42.8 °F 59% 30.13 in 10.0 mi ESE 11.5 mph - N/A   Clear
12:55 AM 55.4 °F 42.8 °F 63% 30.12 in 10.0 mi ESE 13.8 mph - N/A   Clear
1:15 AM 55.4 °F 42.8 °F 63% 30.13 in 10.0 mi ESE 12.7 mph - N/A   Clear
1:35 AM 55.4 °F 42.8 °F 63% 30.12 in 10.0 mi ESE 12.7 mph - N/A   Clear
1:55 AM 55.4 °F 42.8 °F 63% 30.13 in 10.0 mi ESE 10.4 mph 17.3 mph N/A   Clear
2:15 AM 55.4 °F 42.8 °F 63% 30.13 in 10.0 mi ESE 9.2 mph - N/A   Clear
2:35 AM 55.4 °F 42.8 °F 63% 30.13 in 10.0 mi ESE 9.2 mph - N/A   Clear
2:55 AM 53.6 °F 42.8 °F 67% 30.13 in 10.0 mi ESE 10.4 mph - N/A   Clear
3:15 AM 55.4 °F 42.8 °F 63% 30.13 in 10.0 mi ESE 11.5 mph - N/A   Clear
3:35 AM 53.6 °F 42.8 °F 67% 30.12 in 10.0 mi ESE 11.5 mph - N/A   Clear
3:55 AM 53.6 °F 42.8 °F 67% 30.12 in 10.0 mi ESE 10.4 mph - N/A   Clear
4:15 AM 53.6 °F 42.8 °F 67% 30.13 in 10.0 mi ESE 9.2 mph - N/A   Clear
4:35 AM 53.6 °F 42.8 °F 67% 30.13 in 10.0 mi ESE 9.2 mph - N/A   Clear
4:55 AM 53.6 °F 42.8 °F 67% 30.13 in 10.0 mi ESE 10.4 mph - N/A   Clear
5:15 AM 51.8 °F 42.8 °F 71% 30.14 in 10.0 mi ESE 8.1 mph - N/A   Clear
5:35 AM 51.8 °F 42.8 °F 71% 30.14 in 10.0 mi ESE 11.5 mph - N/A   Clear
5:55 AM 51.8 °F 42.8 °F 71% 30.14 in 10.0 mi ESE 11.5 mph - N/A   Clear
6:15 AM 51.8 °F 42.8 °F 71% 30.15 in 10.0 mi ESE 11.5 mph - N/A   Clear
6:35 AM 51.8 °F 42.8 °F 71% 30.15 in 10.0 mi ESE 10.4 mph - N/A   Clear
6:55 AM 51.8 °F 42.8 °F 71% 30.15 in 10.0 mi ESE 10.4 mph - N/A   Clear
7:15 AM 51.8 °F 42.8 °F 71% 30.15 in 10.0 mi SE 12.7 mph - N/A   Clear
7:35 AM 51.8 °F 42.8 °F 71% 30.16 in 10.0 mi SE 11.5 mph 16.1 mph N/A   Clear
7:55 AM 51.8 °F 42.8 °F 71% 30.16 in 10.0 mi SE 8.1 mph - N/A   Clear
8:15 AM 51.8 °F 42.8 °F 71% 30.16 in 10.0 mi SE 9.2 mph - N/A   Clear
8:35 AM 53.6 °F 42.8 °F 67% 30.16 in 10.0 mi SE 8.1 mph - N/A   Clear
8:55 AM 53.6 °F 44.6 °F 72% 30.16 in 10.0 mi SE 10.4 mph - N/A   Clear
9:15 AM 55.4 °F 42.8 °F 63% 30.16 in 10.0 mi SSE 10.4 mph - N/A   Clear
9:35 AM 57.2 °F 42.8 °F 59% 30.15 in 10.0 mi SE 10.4 mph - N/A   Clear
9:55 AM 59.0 °F 42.8 °F 55% 30.14 in 10.0 mi SSE 10.4 mph 17.3 mph N/A   Clear
10:15 AM 60.8 °F 41.0 °F 48% 30.15 in 10.0 mi SSE 11.5 mph - N/A   Clear
10:35 AM 62.6 °F 41.0 °F 45% 30.14 in 10.0 mi SSE 10.4 mph - N/A   Clear
10:55 AM 64.4 °F 41.0 °F 42% 30.14 in 10.0 mi SSE 11.5 mph 17.3 mph N/A   Clear
11:15 AM 64.4 °F 42.8 °F 45% 30.14 in 10.0 mi SSE 9.2 mph - N/A   Clear
11:35 AM 66.2 °F 44.6 °F 46% 30.13 in 10.0 mi South 8.1 mph - N/A   Clear
11:55 AM 68.0 °F 46.4 °F 46% 30.12 in 10.0 mi South 6.9 mph - N/A   Clear
12:15 PM 68.0 °F 46.4 °F 46% 30.11 in 10.0 mi South 10.4 mph 16.1 mph N/A   Clear
12:35 PM 69.8 °F 48.2 °F 46% 30.11 in 10.0 mi SSE 10.4 mph - N/A   Clear
12:55 PM 71.6 °F 48.2 °F 43% 30.09 in 10.0 mi South 15.0 mph 18.4 mph N/A   Clear
1:15 PM 73.4 °F 50.0 °F 44% 30.07 in 10.0 mi South 12.7 mph 21.9 mph N/A   Clear
1:35 PM 71.6 °F 50.0 °F 46% 30.07 in 10.0 mi South 13.8 mph - N/A   Clear
1:55 PM 73.4 °F 53.6 °F 50% 30.06 in 10.0 mi South 8.1 mph - N/A   Clear
2:15 PM 73.4 °F 53.6 °F 50% 30.04 in 10.0 mi South 11.5 mph - N/A   Clear
2:35 PM 73.4 °F 53.6 °F 50% 30.03 in 10.0 mi South 9.2 mph - N/A   Clear
2:55 PM 73.4 °F 53.6 °F 50% 30.03 in 10.0 mi South 10.4 mph 16.1 mph N/A   Clear
3:15 PM 73.4 °F 53.6 °F 50% 30.02 in 10.0 mi South 12.7 mph 17.3 mph N/A   Clear
3:35 PM 73.4 °F 53.6 °F 50% 30.01 in 10.0 mi South 12.7 mph - N/A   Clear
3:55 PM 73.4 °F 53.6 °F 50% 30.01 in 10.0 mi South 11.5 mph 17.3 mph N/A   Clear
4:15 PM 73.4 °F 53.6 °F 50% 30.00 in 10.0 mi South 10.4 mph 16.1 mph N/A   Clear
4:35 PM 73.4 °F 55.4 °F 53% 29.99 in 10.0 mi South 10.4 mph - N/A   Clear
4:55 PM 73.4 °F 55.4 °F 53% 29.98 in 10.0 mi SSE 8.1 mph - N/A   Clear
5:15 PM 73.4 °F 55.4 °F 53% 29.97 in 10.0 mi South 13.8 mph - N/A   Clear
5:35 PM 73.4 °F 57.2 °F 57% 29.97 in 10.0 mi SSE 9.2 mph - N/A   Clear
5:55 PM 73.4 °F 57.2 °F 57% 29.97 in 10.0 mi South 12.7 mph 17.3 mph N/A   Clear
6:15 PM 73.4 °F 57.2 °F 57% 29.96 in 10.0 mi South 12.7 mph 18.4 mph N/A   Clear
6:35 PM 73.4 °F 57.2 °F 57% 29.96 in 10.0 mi South 13.8 mph 18.4 mph N/A   Clear
6:55 PM 73.4 °F 57.2 °F 57% 29.95 in 10.0 mi South 12.7 mph 19.6 mph N/A   Clear
7:15 PM 73.4 °F 57.2 °F 57% 29.96 in 10.0 mi South 12.7 mph - N/A   Clear
7:35 PM 71.6 °F 57.2 °F 60% 29.96 in 10.0 mi South 11.5 mph 17.3 mph N/A   Clear
7:55 PM 71.6 °F 57.2 °F 60% 29.96 in 10.0 mi South 11.5 mph 17.3 mph N/A   Clear
8:15 PM 71.6 °F 57.2 °F 60% 29.96 in 10.0 mi South 9.2 mph - N/A   Clear
8:35 PM 71.6 °F 57.2 °F 60% 29.97 in 10.0 mi South 10.4 mph - N/A   Clear
8:55 PM 71.6 °F 57.2 °F 60% 29.97 in 10.0 mi South 11.5 mph - N/A   Clear
9:15 PM 69.8 °F 57.2 °F 64% 29.98 in 10.0 mi South 10.4 mph - N/A   Clear
9:35 PM 69.8 °F 57.2 °F 64% 29.98 in 10.0 mi South 10.4 mph - N/A   Clear
9:55 PM 69.8 °F 57.2 °F 64% 29.98 in 10.0 mi South 6.9 mph - N/A   Clear
10:15 PM 69.8 °F 57.2 °F 64% 29.98 in 10.0 mi South 8.1 mph - N/A   Clear
10:35 PM 69.8 °F 57.2 °F 64% 29.98 in 10.0 mi SSW 8.1 mph - N/A   Clear
10:55 PM 69.8 °F 57.2 °F 64% 29.98 in 10.0 mi SSW 6.9 mph - N/A   Clear
11:15 PM 69.8 °F 57.2 °F 64% 29.98 in 10.0 mi SSW 8.1 mph - N/A   Clear
11:35 PM 69.8 °F 57.2 °F 64% 29.98 in 10.0 mi SSW 9.2 mph - N/A   Clear
11:55 PM 68.0 °F 59.0 °F 73% 29.98 in 10.0 mi SSW 9.2 mph - N/A   Clear